Flight Track Log - Related Links

Times and Time Zones

All times are in EDT time to prevent confusion due to time zone crossing. See the UCA3598 flight status page for this flight to view local times or setup timezone preferences in your user account.


Time Position Orientation Groundspeed Altitude Reporting Facility
EDT Latitude Longitude Course Direction KTS MPH feet Rate Location/Type
Wed 10:07:08 PM 38.9500 -77.5167 335° Northwest 139 160 2,200  Level Potomac TRACON
Wed 10:09:19 PM 39.0450 -77.5747 335° Northwest 213 245 4,000 938 Climbing Washington Center
Wed 10:10:20 PM 39.0883 -77.6000 336° Northwest 207 238 5,200 1,311 Climbing Washington Center
Wed 10:11:18 PM 39.1489 -77.6017 359° North 186 214 6,600 1,350 Climbing Washington Center
Wed 10:12:20 PM 39.2056 -77.5817 15° North 186 214 7,900 1,339 Climbing Washington Center
Wed 10:13:19 PM 39.2642 -77.5644 13° North 200 230 9,300 1,450 Climbing Washington Center
Wed 10:14:20 PM 39.3228 -77.5500 11° North 205 236 10,800 1,438 Climbing Washington Center
Wed 10:15:20 PM 39.3772 -77.5328 14° North 205 236 12,200 1,109 Climbing Washington Center
Wed 10:16:19 PM 39.4336 -77.5156 13° North 205 236 13,000 270 Climbing Washington Center
Wed 10:18:18 PM 39.5681 -77.4800 12° North 231 266 13,000  Level New York Center
Wed 10:19:17 PM 39.6361 -77.4569 15° North 247 284 13,000 50 Level New York Center
Wed 10:20:17 PM 39.7053 -77.4528 North 241 277 13,100 50 Climbing New York Center
Wed 10:21:17 PM 39.7719 -77.4536 359° North 236 272 13,100  Level New York Center
Wed 10:22:17 PM 39.8431 -77.4522 North 236 272 13,100 -50 Level New York Center
Wed 10:23:17 PM 39.9081 -77.4450 North 236 272 13,000 -50 Descending New York Center
Wed 10:24:17 PM 39.9664 -77.4097 25° Northeast 242 278 13,000 50 Level New York Center
Wed 10:25:17 PM 40.0353 -77.3703 24° Northeast 247 284 13,100  Climbing New York Center
Wed 10:26:17 PM 40.0933 -77.3378 23° Northeast 247 284 13,000 -50 Descending New York Center
Wed 10:27:17 PM 40.1644 -77.2983 23° Northeast 242 278 13,000  Level New York Center
Wed 10:28:17 PM 40.2183 -77.2653 25° Northeast 242 278 13,000  Level New York Center
Wed 10:29:17 PM 40.2892 -77.2283 22° Northeast 242 278 13,000  Level New York Center
Wed 10:30:17 PM 40.3472 -77.1931 25° Northeast 242 278 13,000  Level New York Center
Wed 10:31:17 PM 40.4161 -77.1556 23° Northeast 249 287 13,000  Level New York Center
Wed 10:32:17 PM 40.4764 -77.1203 24° Northeast 249 287 13,000  Level New York Center
Wed 10:33:17 PM 40.5472 -77.0831 22° Northeast 249 287 13,000  Level New York Center
Wed 10:34:17 PM 40.6050 -77.0503 23° Northeast 249 287 13,000  Level New York Center
Wed 10:35:17 PM 40.6611 -77.0169 24° Northeast 249 287 13,000  Level New York Center
Wed 10:36:17 PM 40.7319 -76.9769 23° Northeast 249 287 13,000  Level New York Center
Wed 10:37:17 PM 40.8008 -76.9364 24° Northeast 249 287 13,000  Level New York Center
Wed 10:38:17 PM 40.8589 -76.9033 23° Northeast 249 287 13,000  Level New York Center
Wed 10:39:17 PM 40.9297 -76.8631 23° Northeast 249 287 13,000  Level New York Center
Wed 10:40:17 PM 40.9853 -76.8322 23° Northeast 249 287 13,000  Level New York Center
Wed 10:41:17 PM 41.0478 -76.7939 25° Northeast 249 287 13,000  Level New York Center
Wed 10:42:17 PM 41.1100 -76.7581 23° Northeast 249 287 13,000  Level New York Center
Wed 10:43:17 PM 41.1744 -76.7194 24° Northeast 249 287 13,000  Level New York Center
Wed 10:44:17 PM 41.2389 -76.6839 23° Northeast 249 287 13,000  Level New York Center
Wed 10:45:17 PM 41.3053 -76.6428 25° Northeast 244 281 13,000  Level New York Center
Wed 10:46:17 PM 41.3633 -76.6092 23° Northeast 244 281 13,000  Level New York Center
Wed 10:47:17 PM 41.4256 -76.5703 25° Northeast 244 281 13,000  Level New York Center
Wed 10:48:17 PM 41.4964 -76.5292 23° Northeast 244 281 13,000 -50 Level New York Center
Wed 10:49:17 PM 41.5606 -76.4931 23° Northeast 244 281 12,900 -500 Descending New York Center
Wed 10:50:17 PM 41.6250 -76.4542 24° Northeast 244 281 12,000 -950 Descending New York Center
Wed 10:51:17 PM 41.6811 -76.4117 29° Northeast 255 293 11,000 -1,000 Descending New York Center
Wed 10:52:17 PM 41.7417 -76.3614 32° Northeast 255 293 10,000 -1,100 Descending New York Center
Wed 10:53:17 PM 41.8067 -76.3083 31° Northeast 249 287 8,800 -1,100 Descending New York Center
Wed 10:54:17 PM 41.8650 -76.2631 30° Northeast 244 281 7,800 -950 Descending New York Center
Wed 10:55:17 PM 41.9236 -76.2150 31° Northeast 244 281 6,900 -950 Descending New York Center
Wed 10:56:17 PM 41.9778 -76.1692 32° Northeast 244 281 5,900 -1,000 Descending New York Center
Wed 10:57:17 PM 42.0319 -76.1178 35° Northeast 244 281 4,900 -950 Descending New York Center
Wed 10:58:17 PM 42.0872 -76.0439 45° Northeast 244 281 4,000 -700 Descending New York Center
Wed 10:59:17 PM 42.1275 -75.9856 47° Northeast 231 266 3,500 -650 Descending New York Center
Wed 11:00:17 PM 42.1583 -75.9433 45° Northeast 195 224 2,700 -750 Descending New York Center
Wed 11:01:17 PM 42.1850 -75.9567 340° North 117 135 2,000 -350 Descending New York Center
Wed 11:02:17 PM 42.2153 -75.9283 35° Northeast 117 135 2,000 3,500 Level New York Center
Wed 11:03:17 PM 42.2472 -75.9111 22° Northeast 117 135 9,000 3,500 Climbing New York Center
Wed 11:04:17 PM 42.2792 -75.8911 25° Northeast 117 135 9,000  Level New York Center

Login

Don't have an account? Register now (free) for customized features, flight alerts, and more!